Location: Briis
(48.6240°N, 2.1211°E)
Time: 09:55:10
(UTC+00:00)

Cosmos 1980 Rocket - Pass Details

Date: 25 September 2020
Orbit: 831 x 848 km, 71.0° (Epoch: 26 October)

Event Time Altitude Azimuth Distance (km) Brightness Sun altitude
Exits shadow 04:29:22 12° 290° (WNW) 2,314 4.0 -12.9°
Maximum altitude 04:32:15 17° 324° (NW) 2,013 3.9 -12.4°
Drops below altitude 10° 04:35:52 10° 4° (N) 2,466 4.8 -11.8°
Sets 04:39:15 0° 24° (NNE) 3,400 5.9 -11.3°
